User: anonymous   Login
Location: Unspecified
(0.0000°N, 0.0000°E)
Time: 13:22:33
(UTC+00:00)
Language:

UNISAT 5 - Orbit

View from above orbital plane
View from above orbital plane
View from above satellite
View from above satellite

Ground track
Ground track

The orbit data is extracted from the following two-line orbital elements,

1 39421U 13066F   21016.07057935  .00000170  00000-0  24063-4 0  9998
2 39421  97.4975  32.8616 0029929 219.9097 139.9921 14.87971264388255
Epoch (UTC): 16 January 2021 01:41:38
Eccentricity: 0.0029929
inclination: 97.4975°
perigee height: 583 km
apogee height: 625 km
right ascension of ascending node: 32.8616°
argument of perigee: 219.9097°
revolutions per day: 14.87971264
mean anomaly at epoch: 139.9921°
orbit number at epoch: 38825

The dashed part of the orbit path shows where the satellite is in the earth's shadow,  

DLR